Location: Oshawa
(43.9000°N, 78.8670°W)
Time: 02:01:49
(UTC-04:00)

S-56A Canister/Altair - All Passes

Search period start: 24 May 2016 00:00
Search period end: 03 June 2016 00:00
Orbit: 641 x 2494 km, 38.9° (Epoch: 17 May)

Date Brightness Start Highest point End Pass type
(mag) Time Alt. Az. Time Alt. Az. Time Alt. Az.
24 May - 06:02:11 10° S 06:05:37 13° SSE 06:08:38 10° ESE daylight
24 May - 08:02:44 10° SW 08:09:27 32° SSE 08:14:22 10° E daylight
24 May - 10:07:04 10° WSW 10:13:00 49° S 10:17:34 10° ESE daylight
24 May - 12:11:42 10° W 12:16:14 35° SSW 12:20:19 10° SE daylight
24 May - 14:17:44 10° SW 14:19:02 11° SSW 14:20:22 10° SSW daylight
25 May - 05:30:09 10° SSE 05:33:11 12° SE 05:35:54 10° SE daylight
25 May - 07:29:59 10° SW 07:37:07 31° SSE 07:42:18 10° E daylight
25 May - 09:34:20 10° WSW 09:40:48 50° S 09:45:33 10° E daylight
25 May - 11:39:12 10° W 11:44:06 39° SSW 11:48:17 10° SE daylight
25 May - 13:44:46 10° WSW 13:46:54 13° SSW 13:49:02 10° S daylight
26 May - 04:58:23 10° SSE 05:00:43 11° SE 05:02:52 10° SE visible
26 May - 06:57:12 10° SSW 07:04:44 30° SSE 07:10:12 10° E daylight
26 May - 09:01:32 10° WSW 09:08:33 50° S 09:13:33 10° E daylight
26 May - 11:06:36 10° W 11:11:58 43° SSW 11:16:17 10° ESE daylight
26 May - 13:12:01 10° WSW 13:14:46 16° SSW 13:17:28 10° S daylight
27 May - 04:27:46 10° SE 04:28:12 10° SE 04:28:38 10° SE visible
27 May - 06:24:23 10° SSW 06:32:19 29° SSE 06:38:04 10° E daylight
27 May - 08:28:39 10° WSW 08:36:16 50° S 08:41:32 10° E daylight
27 May - 10:33:56 10° W 10:39:48 47° SSW 10:44:19 10° ESE daylight
27 May - 12:39:19 10° WSW 12:42:40 18° SSW 12:45:48 10° SSE daylight
28 May - 05:51:33 10° SSW 05:59:51 28° SSE 06:05:54 10° E daylight
28 May - 07:55:42 10° WSW 08:03:56 49° S 08:09:32 10° E daylight
28 May - 10:01:10 10° W 10:07:36 51° S 10:12:21 10° ESE daylight
28 May - 12:06:36 10° W 12:10:34 22° SSW 12:14:05 10° SSE daylight
29 May - 05:18:44 10° SSW 05:27:19 27° SSE 05:33:41 10° E daylight
29 May - 07:22:41 10° WSW 07:31:32 49° SSE 07:37:31 10° E daylight
29 May - 09:28:18 10° W 09:35:22 54° S 09:40:23 10° ESE daylight
29 May - 11:33:53 10° W 11:38:28 26° SSW 11:42:19 10° SSE daylight
30 May - 04:45:57 10° SSW 04:54:45 26° SSE 05:01:23 10° E visible
30 May - 06:49:37 10° SW 06:59:06 48° SSE 07:05:28 10° E daylight
30 May - 08:55:21 10° W 09:03:06 57° S 09:08:25 10° ESE daylight
30 May - 11:01:06 10° W 11:06:21 30° SSW 11:10:31 10° SE daylight
31 May - 04:13:12 10° SSW 04:22:08 24° SSE 04:29:01 10° E visible
31 May - 06:16:31 10° SW 06:26:36 47° SSE 06:33:24 10° E daylight
31 May - 08:22:19 10° WSW 08:30:46 59° S 08:36:26 10° ESE daylight
31 May - 10:28:15 10° W 10:34:12 35° SSW 10:38:42 10° SE daylight
01 Jun - 03:40:31 10° S 03:49:29 23° SE 03:56:33 10° E visible
01 Jun - 05:43:23 10° SW 05:54:03 46° SSE 06:01:17 10° E daylight
01 Jun - 07:49:12 10° WSW 07:58:23 60° S 08:04:26 10° ESE daylight
01 Jun - 09:55:20 10° W 10:02:01 41° SSW 10:06:51 10° SE daylight
01 Jun - 12:03:00 10° WSW 12:04:29 11° SW 12:05:52 10° SSW daylight
02 Jun - 03:07:56 10° S 03:16:47 21° SE 03:23:57 10° E visible
02 Jun - 05:10:15 10° SW 05:21:25 44° SSE 05:29:07 10° E daylight
02 Jun - 07:16:01 10° WSW 07:25:56 61° S 07:32:26 10° E daylight
02 Jun - 09:22:20 10° W 09:29:47 46° SSW 09:34:59 10° SE daylight
02 Jun - 11:29:18 10° WSW 11:32:23 14° SW 11:35:06 10° S daylight
